Wind_Speed
111 107 103 100 94 91 89 87 85 81 80 77 74 75 74 71 72 70 69 66 64 64 61 61 61 61 61 59 63 67 65 60 62 58 56 57 59 61
118 116 111 105 102 98 95 94 89 86 79 79 81 81 79 78 77 74 72 70 70 68 66 65 65 64 65 66 64 66 70 69 63 63 63 63 63 63
114 117 118 114 109 105 104 100 96 92 87 87 86 87 85 82 79 77 78 76 77 74 72 70 69 70 71 71 71 68 70 74 71 73 72 70 73 69
105 111 117 119 116 113 111 106 102 98 96 90 91 89 88 87 86 86 86 82 83 83 78 77 77 76 77 78 78 75 70 75 80 73 78 77 71 73
97 101 107 112 116 116 115 113 108 104 99 96 92 93 91 91 92 91 91 88 87 81 80 81 83 83 83 81 80 80 79 77 80 83 79 77 76 71
90 94 100 106 109 114 114 113 112 108 106 101 98 98 96 96 95 94 93 92 90 88 89 90 90 92 93 90 88 86 81 81 80 84 88 86 81 72
79 84 88 93 98 101 104 109 112 110 107 105 102 100 99 99 100 99 98 97 96 95 98 95 97 96 98 98 93 91 89 86 84 85 87 92 94 88
58 63 68 74 84 93 99 103 105 106 106 105 104 102 102 101 101 102 101 101 99 104 101 101 102 102 101 96 94 89 90 87 86 85 90 92 94 90
48 54 59 64 70 76 82 88 92 96 98 100 101 102 102 102 101 102 104 105 105 105 106 101 99 97 97 94 91 87 85 87 85 88 90 92 94 96
42 44 47 52 57 63 66 71 77 82 84 87 90 94 97 97 98 99 101 101 100 100 99 97 96 96 95 90 87 85 86 84 87 87 86 90 95 96
30 34 38 42 47 51 53 59 62 65 70 74 77 79 82 85 87 89 89 90 91 94 95 93 89 86 85 85 85 86 87 87 86 87 89 92 95 96
23 26 29 32 36 37 43 48 51 55 58 62 64 68 72 75 79 80 82 83 83 84 82 81 80 79 79 81 84 85 86 88 89 92 94 96 98 101
14 17 21 26 28 32 36 39 42 47 52 56 59 62 64 66 67 66 65 63 65 68 68 72 75 81 85 83 81 85 89 91 93 97 101 104 107 108
5 9 12 15 18 21 25 29 32 35 38 41 43 45 43 44 47 52 57 60 63 66 71 75 78 83 87 88 90 92 97 99 101 105 109 113 114 115
10 8 10 13 15 18 22 24 26 28 31 33 37 42 46 50 54 59 62 66 70 76 82 87 91 95 99 103 106 109 111 113 115 117 118 119 121 121
14 16 18 19 20 23 25 26 29 33 36 39 44 47 52 59 64 67 70 74 79 86 93 98 102 106 110 116 119 121 124 123 122 123 125 127 127 128
25 27 29 32 35 36 36 38 40 43 48 51 54 59 63 68 72 74 79 83 89 95 102 109 114 117 120 124 129 129 125 121 120 119 121 121 122 122
35 38 41 41 42 43 44 47 50 54 56 60 64 67 71 74 78 82 86 91 97 104 104 105 109 116 124 132 137 128 125 122 119 111 107 104 104 112
47 46 46 52 52 50 51 56 60 62 66 69 72 76 80 83 86 92 93 91 93 97 101 106 114 124 133 131 136 134 119 108 99 94 91 88 86 90
56 59 57 57 55 58 62 63 65 69 73 77 80 82 84 84 83 83 86 91 96 99 105 112 121 130 130 125 116 109 102 93 84 78 76 74 73 74
60 64 69 69 70 70 71 73 75 78 81 83 83 79 76 77 81 84 89 95 96 100 106 112 121 116 107 100 95 88 81 74 69 66 65 64 65 67
70 71 72 72 73 74 76 76 79 80 78 76 75 76 79 81 84 87 92 96 99 102 100 108 105 99 92 83 76 70 64 60 55 53 53 54 55 55
82 81 82 82 82 81 79 81 80 75 74 75 77 80 82 86 89 92 95 98 101 98 99 98 95 86 77 68 61 57 54 50 46 42 41 42 44 48
Wind_Direction
247 249 249 250 250 250 251 253 254 255 261 263 265 268 270 272 276 279 279 281 283 284 287 286 285 286 287 281 280 279 280 280 280 279 278 279 279 284
244 246 248 248 249 250 251 250 253 253 255 261 265 266 269 272 272 275 276 278 280 279 281 281 282 283 284 284 285 281 278 278 276 276 278 277 278 281
242 243 245 246 247 249 251 251 252 252 254 256 260 264 266 269 269 272 275 276 279 280 276 281 280 278 284 284 282 284 280 274 272 277 279 281 283 285
239 241 243 244 245 247 249 250 251 251 251 254 257 261 263 266 268 271 273 274 275 277 277 277 277 278 279 282 284 285 281 278 275 274 276 280 281 286
238 240 241 242 244 245 247 249 251 252 253 254 257 258 261 264 266 268 272 272 272 275 277 279 278 279 281 281 280 279 280 279 275 271 276 278 280 281
238 238 239 241 242 244 247 250 251 253 254 253 255 256 258 261 264 267 269 270 271 273 276 276 277 279 280 281 278 278 277 275 276 274 270 272 276 276
237 239 241 243 245 247 247 249 251 252 254 254 255 256 257 259 262 264 267 270 272 274 275 276 276 278 278 281 280 278 277 276 276 275 273 272 273 273
243 244 245 245 246 246 246 248 251 252 253 255 256 256 257 259 261 263 267 269 271 271 275 277 278 279 279 279 280 278 277 279 279 279 276 272 272 274
242 243 244 244 245 247 248 249 251 253 254 254 256 258 258 260 262 263 264 269 271 274 277 278 277 278 279 280 280 279 278 279 279 278 275 273 272 272
239 241 242 243 243 244 245 248 250 252 254 255 256 257 260 263 264 265 267 270 272 274 276 275 278 278 279 280 280 279 278 277 278 277 272 269 271 272
235 236 237 240 243 243 246 248 249 251 253 254 257 259 261 263 265 267 269 271 271 272 276 277 279 280 281 281 279 280 280 279 276 273 270 270 271 271
235 236 237 240 242 245 246 247 251 254 255 257 258 259 260 262 265 267 270 273 275 277 279 279 279 278 277 277 277 278 280 279 277 273 273 271 273 275
237 236 243 246 246 247 250 251 253 254 257 259 261 263 265 268 271 273 275 277 277 277 280 282 282 278 276 274 274 276 277 278 277 274 273 274 274 275
247 246 241 245 250 250 253 256 258 261 262 264 268 270 273 276 278 280 278 277 277 279 280 278 277 278 278 277 274 272 273 272 271 272 273 274 275 276
235 236 249 255 254 252 255 255 259 262 262 265 269 269 269 272 277 281 282 281 282 280 279 281 282 281 281 280 279 276 275 272 271 271 272 272 272 273
273 277 278 278 277 284 280 280 282 283 283 282 283 283 281 280 277 277 276 278 279 280 279 279 281 283 283 283 281 279 279 279 277 277 276 273 271 269
278 281 280 280 280 278 279 280 277 271 271 269 268 269 272 273 274 275 276 277 278 279 282 285 287 287 286 285 283 284 287 290 289 287 283 279 276 273
261 261 267 264 266 265 264 266 265 268 269 271 273 276 278 278 278 278 278 281 283 285 286 287 287 287 286 285 288 293 293 293 292 287 283 278 274 271
263 266 268 271 269 269 271 272 274 271 270 272 274 276 278 279 280 281 285 286 287 287 289 290 290 289 288 292 294 295 294 294 290 285 280 275 270 264
261 262 264 266 268 268 268 272 273 272 274 276 277 279 281 284 285 285 286 289 291 293 293 293 290 289 294 295 294 294 293 290 287 282 276 270 265 258
259 258 260 264 267 270 272 274 275 276 279 280 281 283 283 285 286 289 292 292 295 297 297 295 292 298 298 297 295 292 290 287 283 276 271 265 260 255
260 261 262 265 268 269 273 275 278 281 282 282 283 284 286 288 290 294 296 300 301 301 303 300 302 304 302 299 296 293 291 287 281 275 268 261 256 249
259 261 262 264 267 271 272 276 280 278 278 281 284 286 290 294 296 299 301 303 306 309 308 307 308 306 304 301 300 300 296 291 285 276 267 259 251 244
Height
10624 10633 10645 10656 10665 10672 10678 10683 10689 10695 10697 10701 10703 10702 10703 10704 10703 10703 10703 10702 10702 10701 10700 10697 10696 10694 10692 10690 10688 10684 10681 10679 10676 10673 10671 10670 10668 10667
10596 10607 10617 10633 10641 10648 10654 10662 10668 10676 10686 10683 10685 10684 10687 10690 10689 10689 10687 10687 10687 10687 10685 10684 10682 10680 10677 10675 10674 10671 10668 10664 10661 10657 10655 10652 10653 10654
10569 10581 10591 10604 10615 10624 10630 10639 10649 10656 10667 10665 10668 10667 10670 10671 10673 10673 10672 10671 10669 10670 10670 10668 10667 10665 10663 10660 10658 10658 10654 10649 10645 10642 10638 10637 10636 10638
10545 10554 10565 10577 10589 10599 10605 10617 10624 10632 10642 10650 10649 10654 10652 10652 10654 10654 10653 10654 10652 10649 10653 10652 10650 10648 10645 10642 10642 10642 10640 10635 10631 10627 10621 10622 10622 10619
10522 10533 10543 10553 10565 10575 10582 10589 10600 10608 10619 10629 10636 10635 10637 10633 10632 10634 10633 10633 10633 10634 10634 10633 10629 10627 10625 10625 10624 10620 10619 10617 10615 10611 10605 10605 10605 10606
10500 10511 10519 10529 10541 10550 10561 10571 10578 10588 10596 10606 10612 10614 10617 10615 10614 10615 10613 10612 10613 10615 10614 10612 10610 10606 10605 10605 10603 10599 10597 10595 10595 10592 10589 10585 10586 10587
10483 10494 10503 10514 10524 10535 10544 10551 10558 10567 10573 10580 10588 10591 10597 10596 10593 10593 10593 10591 10594 10596 10589 10591 10587 10586 10583 10581 10581 10579 10577 10575 10574 10571 10568 10567 10565 10566
10474 10482 10491 10501 10509 10516 10525 10532 10539 10545 10552 10557 10562 10568 10570 10575 10574 10572 10575 10574 10576 10567 10568 10571 10565 10564 10558 10559 10556 10555 10553 10552 10553 10551 10548 10547 10545 10544
10460 10466 10473 10481 10488 10496 10504 10511 10519 10525 10531 10536 10542 10545 10547 10549 10553 10553 10551 10551 10551 10546 10546 10547 10542 10540 10536 10535 10534 10533 10531 10530 10529 10528 10526 10524 10522 10521
10447 10455 10461 10467 10473 10478 10486 10493 10497 10503 10513 10517 10521 10522 10526 10529 10530 10530 10530 10531 10530 10525 10523 10523 10520 10519 10514 10514 10510 10509 10508 10506 10505 10504 10502 10500 10499 10498
10441 10445 10448 10453 10459 10466 10475 10477 10480 10488 10492 10494 10498 10504 10505 10507 10509 10509 10509 10509 10507 10504 10503 10503 10499 10499 10494 10492 10488 10485 10484 10485 10483 10480 10480 10479 10477 10474
10433 10437 10441 10444 10448 10455 10459 10464 10469 10472 10476 10480 10484 10486 10487 10488 10489 10490 10490 10490 10489 10486 10482 10478 10478 10475 10478 10476 10470 10465 10461 10458 10456 10456 10456 10455 10452 10449
10428 10432 10435 10438 10443 10446 10449 10453 10457 10460 10463 10466 10468 10471 10473 10473 10473 10473 10472 10471 10469 10466 10464 10461 10460 10452 10450 10456 10455 10448 10442 10437 10434 10432 10430 10428 10425 10422
10428 10429 10433 10435 10437 10440 10442 10445 10448 10450 10453 10455 10456 10457 10457 10457 10458 10457 10455 10453 10450 10446 10441 10439 10439 10432 10428 10430 10430 10428 10420 10414 10409 10405 10400 10398 10396 10394
10428 10429 10431 10432 10434 10437 10439 10441 10443 10444 10445 10446 10447 10447 10446 10446 10444 10440 10438 10435 10431 10426 10422 10415 10410 10405 10400 10396 10393 10391 10385 10382 10377 10373 10370 10367 10366 10364
10424 10425 10426 10428 10430 10431 10432 10434 10435 10436 10437 10436 10436 10435 10434 10432 10429 10426 10421 10416 10413 10402 10393 10386 10379 10373 10368 10355 10346 10345 10337 10332 10338 10333 10328 10327 10332 10332
10419 10420 10421 10422 10423 10425 10425 10425 10426 10427 10427 10426 10424 10422 10420 10416 10412 10408 10404 10399 10391 10382 10369 10354 10345 10335 10323 10311 10297 10286 10286 10286 10285 10283 10276 10278 10279 10283
10413 10414 10415 10415 10415 10415 10415 10415 10414 10414 10412 10411 10409 10406 10402 10397 10391 10385 10382 10376 10369 10358 10345 10333 10319 10305 10287 10271 10244 10244 10239 10231 10232 10228 10219 10223 10229 10233
10401 10401 10401 10401 10402 10402 10401 10401 10399 10398 10395 10393 10390 10386 10382 10377 10371 10364 10358 10350 10342 10333 10319 10307 10290 10265 10245 10235 10218 10191 10190 10182 10183 10179 10175 10178 10186 10191
10384 10385 10385 10385 10385 10385 10384 10383 10381 10379 10376 10373 10369 10365 10360 10354 10347 10341 10334 10327 10316 10305 10290 10271 10250 10227 10214 10199 10183 10161 10153 10147 10143 10140 10138 10141 10147 10154
10366 10366 10366 10366 10366 10366 10365 10363 10361 10359 10355 10351 10347 10342 10337 10333 10325 10319 10311 10299 10291 10278 10260 10235 10210 10198 10182 10165 10149 10136 10125 10118 10113 10109 10109 10111 10116 10122
10346 10347 10347 10346 10345 10344 10343 10341 10340 10336 10332 10328 10324 10320 10315 10310 10303 10295 10283 10272 10259 10245 10226 10201 10183 10166 10150 10136 10120 10109 10101 10092 10088 10085 10084 10087 10092 10100
10325 10325 10325 10324 10324 10324 10322 10320 10318 10314 10310 10308 10304 10298 10292 10283 10275 10266 10257 10246 10230 10213 10194 10174 10156 10141 10125 10110 10098 10087 10079 10072 10068 10066 10066 10069 10074 10081